Regional Weather Roundup
Issued by NWS Goodland, KS

Home | Current Version | Previous Version | Graphics & Text | Print | Product List | Glossary On
Versions: 1 2 3 4 5 6 7 8 9 10 11 12 13 14 15 16 17 18 19 20 21 22 23 24 25 26 27 28 29 30 31 32 33 34 35 36 37 38 39 40 41 42 43 44 45 46 47 48 49 50
000
ASUS43 KGLD 060108
RWRGLD

GOODLAND FORECAST AREA HOURLY WEATHER ROUNDUP
NATIONAL WEATHER SERVICE GOODLAND KS
700 PM MDT THU MAY 05 2016

...OFFICIAL OBSERVATIONS...

CITY           SKY/WX    TMP DP  RH WIND       PRES   REMARKS
GOODLAND KS    CLOUDY    74  44  34 SE13      30.00S
HILL CITY KS   CLOUDY    74  48  39 SE6       30.00F
IMPERIAL NEB   CLOUDY    74  46  36 S13       29.97S
MCCOOK NEB     CLOUDY    74  49  41 SE10      29.98S
AKRON CO       CLOUDY    72  38  29 S12       29.99F
BURLINGTON CO  CLEAR     74  40  29 S13       30.02S
LIMON CO       CLOUDY    70  38  31 SE13      30.05S
$$

...UNOFFICIAL OBSERVATIONS...

CITY           SKY/WX    TMP DP  RH WIND       PRES   REMARKS
COLBY KS       CLEAR     72  54  53 SE10G17   30.02S
LENORA KS        N/A     71  32  23 MISG        N/A
NORTON KS      CLEAR     73  45  35 SE7       29.99S
SHARON SPRINGS   N/A     74  48  39 SE12        N/A
TRIBUNE KS     CLEAR     77  46  33 SE13      30.02F
KIT CARSON CO    N/A     76  41  28 MISG        N/A
YUMA CO          N/A     71  44  38 S7          N/A
$$



USA.gov is the U.S. government's official web portal to all federal, state and local government web resources and services.